User: anonymous   Login
Location: Unspecified
(0.0000°N, 0.0000°E)
Time: 13:22:37
(UTC+02:00)
Language:

Cosmos 2082 Rocket - Orbit

View from above orbital plane
View from above orbital plane
View from above satellite
View from above satellite

Ground track
Ground track

The orbit data is extracted from the following two-line orbital elements,

1 20625U 90046B   15187.14557291 -.00000122  00000-0 -38683-4 0  9999
2 20625 070.9981 203.5203 0011965 112.0059 310.7980 14.14582448297148
Epoch (UTC): 06 July 2015 03:29:37
Eccentricity: 0.0011965
inclination: 70.9981°
perigee height: 835 km
apogee height: 852 km
right ascension of ascending node: 203.5203°
argument of perigee: 112.0059°
revolutions per day: 14.14582448
mean anomaly at epoch: 310.7980°
orbit number at epoch: 29714

The dashed part of the orbit path shows where the satellite is in the earth's shadow,  

DLR